Plymouth, MA

1:40 AM EDT on March 23, 2017 (GMT -0400)
Plymouth Municipal

Weather History for KPYM - June, 2013

Change the Weather History Date:

Wednesday, June 26, 2013

  Actual Average Record
Temperature  
Mean Temperature 78 °F -  
Max Temperature 90 °F 78 °F 102 °F (1952)
Min Temperature 66 °F 55 °F 41 °F (1979)
Cooling Degree Days 13    
Growing Degree Days 28 (Base 50)    
Moisture  
Dew Point 66 °F    
Average Humidity 75    
Maximum Humidity 90    
Minimum Humidity 48    
Precipitation  
Precipitation 0.01 in - - ()
Sea Level Pressure  
Sea Level Pressure 29.79 in    
Wind  
Wind Speed 6 mph (West)    
Max Wind Speed 15 mph    
Max Gust Speed 22 mph    
Visibility 9 miles    
Events Rain    
Averages and records for this station are not official NWS values.
T = Trace of Precipitation, MM = Missing Value Source: NWS Daily Summary

Daily Weather History Graph

Daily Weather History Graph

Search for Another Location

Airport or City:

Trip Planner

Search our weather history database for the weather conditions in past years. The results will help you decide how hot, cold, wet, or windy it might be!

Date:

Astronomy

Jun. 26, 2013 Rise Set
Actual Time 5:09 AM EDT 8:22 PM EDT
Civil Twilight 4:34 AM EDT 8:56 PM EDT
Nautical Twilight 3:50 AM EDT 9:40 PM EDT
Astronomical Twilight 2:57 AM EDT 10:34 PM EDT
Moon 10:39 PM EDT (6/26) 9:00 AM EDT (6/26)
Length of Visible Light 16h 21m
Length of Day
15h 12m
Waning Gibbous, 85% of the Moon is Illuminated
Jun 26
Waning Gibbous
Jun 30
Last Quarter
Jul 8
New
Jul 15
First Quarter
Jul 22
Full

Hourly Weather History & Observations

Time (EDT) Temp. Heat Index Dew Point Humidity Pressure Visibility Wind Dir Wind Speed Gust Speed Precip Events Conditions
12:52 AM 75.0 °F - 66.9 °F 76% 29.76 in 10.0 mi WSW 8.1 mph - N/A   Scattered Clouds
1:52 AM 73.9 °F - 66.9 °F 79% 29.75 in 10.0 mi WSW 8.1 mph - N/A   Clear
2:52 AM 73.0 °F - 66.0 °F 79% 29.74 in 10.0 mi WSW 6.9 mph - N/A   Clear
3:52 AM 73.0 °F - 66.0 °F 79% 29.74 in 10.0 mi Variable 4.6 mph - N/A   Clear
4:52 AM 73.0 °F - 66.0 °F 79% 29.75 in 10.0 mi West 5.8 mph - N/A   Clear
5:52 AM 72.0 °F - 66.0 °F 81% 29.76 in 9.0 mi SSW 4.6 mph - N/A   Clear
6:52 AM 73.9 °F - 66.9 °F 79% 29.76 in 10.0 mi WSW 3.5 mph - N/A   Clear
7:52 AM 77.0 °F - 66.9 °F 71% 29.77 in 10.0 mi WSW 6.9 mph - N/A   Clear
8:52 AM 81.0 °F 83.3 °F 66.9 °F 62% 29.77 in 10.0 mi West 5.8 mph - N/A   Clear
9:52 AM 84.0 °F 87.0 °F 68.0 °F 58% 29.77 in 10.0 mi West 6.9 mph - N/A   Clear
10:52 AM 86.0 °F 89.4 °F 68.0 °F 55% 29.77 in 10.0 mi WSW 10.4 mph - N/A   Clear
11:52 AM 86.0 °F 88.2 °F 66.0 °F 51% 29.77 in 10.0 mi WNW 6.9 mph - N/A   Partly Cloudy
12:52 PM 88.0 °F 90.3 °F 66.0 °F 48% 29.75 in 10.0 mi WSW 10.4 mph - N/A   Scattered Clouds
1:52 PM 87.1 °F 88.9 °F 64.9 °F 48% 29.75 in 10.0 mi WSW 13.8 mph 21.9 mph N/A   Mostly Cloudy
2:52 PM 79.0 °F - 66.0 °F 64% 29.77 in 10.0 mi NE 10.4 mph - N/A   Mostly Cloudy
3:52 PM 78.1 °F - 66.9 °F 68% 29.77 in 10.0 mi NE 4.6 mph - N/A   Mostly Cloudy
4:52 PM 75.9 °F - 69.1 °F 79% 29.75 in 7.0 mi ENE 4.6 mph - 0.01 in Rain Light Rain
5:52 PM 75.9 °F - 69.1 °F 79% 29.78 in 10.0 mi Calm Calm - 0.00 in   Partly Cloudy
6:52 PM 75.0 °F - 69.1 °F 82% 29.80 in 10.0 mi NNE 15.0 mph 19.6 mph N/A   Mostly Cloudy
7:52 PM 72.0 °F - 66.9 °F 84% 29.81 in 8.0 mi Calm Calm - 0.00 in   Scattered Clouds
8:52 PM 70.0 °F - 66.0 °F 87% 29.82 in 9.0 mi NE 6.9 mph - 0.00 in   Overcast
9:52 PM 69.1 °F - 66.0 °F 90% 29.83 in 7.0 mi Calm Calm - N/A   Scattered Clouds
10:39 PM 68.0 °F - 64.4 °F 88% 29.85 in 5.0 mi NE 8.1 mph - N/A   Mostly Cloudy
10:49 PM 68.0 °F - 64.4 °F 88% 29.85 in 5.0 mi Calm Calm - N/A   Mostly Cloudy
10:52 PM 68.0 °F - 64.9 °F 90% 29.85 in 5.0 mi ENE 3.5 mph - N/A   Mostly Cloudy
11:15 PM 68.0 °F - 64.4 °F 88% 29.86 in 5.0 mi Calm Calm - N/A   Partly Cloudy
11:52 PM 66.9 °F - 64.0 °F 90% 29.86 in 4.0 mi Calm Calm - N/A   Clear